Torna al catalogo

FENGYUN 1C DEB

AttivoSSO
NORAD 30257·DEBRIS·🇨🇳 China

Lanciato May 10, 1999 da Taiyuan Satellite Launch Center

Loading…

Prossimi Passaggi (prossime 24 ore)

TLE

AggiornatoSource: Space-Track

Epoca: Sep 14, 2026, 06:45 UTC

1 30257U 99025XS  26257.28142940  .00000198  00000-0  13457-3 0  9995
2 30257  98.7625 253.4120 0059401  40.7158 333.4493 14.09854226 10974

Traccia FENGYUN 1C DEB in tempo reale con AllMySat

Download on the App Store